| time (UTC) | temp C | wind direction | speed KPH | gust KPH | rain 1hr cm | rain 24hr cm | rain mn cm | humidity % | barometer mb |
| 20260503034600 | 1 | 26 | 1.6 | 8.0 | 0.03 | 0.36 | 0.36 | 88 | 1013.9 |
| 20260503034020 | 1 | 5 | 1.6 | 4.8 | 0.03 | 0.36 | 0.36 | 88 | 1014.0 |
| 20260503033520 | 1 | 25 | 1.6 | 4.8 | 0.03 | 0.36 | 0.36 | 88 | 1014.2 |
| 20260503033111 | 1 | 47 | 1.6 | 4.8 | 0.03 | 0.36 | 0.36 | 88 | 1014.0 |
| 20260503032519 | 1 | 71 | 0.0 | 4.8 | 0.03 | 0.36 | 0.36 | 88 | 1014.1 |
| 20260503032018 | 1 | 63 | 1.6 | 4.8 | 0.03 | 0.36 | 0.36 | 88 | 1014.1 |
| 20260503031616 | 1 | 37 | 1.6 | 4.8 | 0.03 | 0.36 | 0.36 | 88 | 1014.2 |
| 20260503031019 | 1 | 47 | 1.6 | 4.8 | 0.00 | 0.36 | 0.36 | 88 | 1014.1 |
| 20260503030520 | 1 | 76 | 0.0 | 4.8 | 0.00 | 0.36 | 0.36 | 88 | 1014.2 |
| 20260503030131 | 1 | 38 | 0.0 | 4.8 | 0.00 | 0.36 | 0.36 | 88 | 1014.2 |
| 20260503025519 | 1 | 160 | 0.0 | 6.4 | 0.00 | 0.36 | 0.36 | 88 | 1014.2 |
| 20260503025021 | 1 | 196 | 1.6 | 8.0 | 0.00 | 0.36 | 0.36 | 88 | 1014.2 |
| 20260503024638 | 1 | 37 | 0.0 | 1.6 | 0.00 | 0.36 | 0.36 | 89 | 1014.2 |
| 20260503024021 | 1 | 37 | 0.0 | 3.2 | 0.00 | 0.36 | 0.36 | 88 | 1014.5 |
| 20260503023521 | 1 | 37 | 0.0 | 3.2 | 0.00 | 0.36 | 0.36 | 88 | 1014.2 |
| 20260503023119 | 1 | 37 | 0.0 | 1.6 | 0.00 | 0.36 | 0.36 | 88 | 1014.2 |
| 20260503022532 | 1 | 37 | 0.0 | 1.6 | 0.00 | 0.36 | 0.36 | 87 | 1014.4 |
| 20260503022025 | 1 | 37 | 0.0 | 1.6 | 0.00 | 0.36 | 0.36 | 86 | 1014.4 |
| 20260503021614 | 1 | 37 | 0.0 | 1.6 | 0.00 | 0.36 | 0.36 | 85 | 1014.5 |
| 20260503021021 | 1 | 37 | 0.0 | 3.2 | 0.00 | 0.36 | 0.36 | 85 | 1014.4 |
| 20260503020519 | 1 | 37 | 0.0 | 3.2 | 0.00 | 0.36 | 0.36 | 85 | 1014.5 |
| 20260503020125 | 1 | 37 | 0.0 | 4.8 | 0.00 | 0.36 | 0.36 | 84 | 1014.3 |
| 20260503015519 | 1 | 59 | 0.0 | 4.8 | 0.00 | 0.36 | 0.36 | 84 | 1014.5 |
| 20260503015019 | 1 | 55 | 0.0 | 4.8 | 0.00 | 0.36 | 0.36 | 83 | 1014.6 |
| 20260503014558 | 1 | 84 | 0.0 | 4.8 | 0.00 | 0.36 | 0.36 | 83 | 1014.5 |
| 20260503014017 | 1 | 79 | 1.6 | 4.8 | 0.00 | 0.36 | 0.36 | 82 | 1014.6 |
| 20260503013521 | 1 | 67 | 0.0 | 6.4 | 0.00 | 0.36 | 0.36 | 83 | 1014.6 |
| 20260503013133 | 1 | 100 | 3.2 | 6.4 | 0.00 | 0.36 | 0.36 | 81 | 1014.1 |
| 20260503012520 | 1 | 63 | 0.0 | 4.8 | 0.00 | 0.36 | 0.36 | 84 | 1014.7 |
| 20260503012021 | 1 | 50 | 0.0 | 3.2 | 0.00 | 0.36 | 0.36 | 85 | 1014.4 |
| 20260503011638 | 1 | 33 | 1.6 | 4.8 | 0.00 | 0.36 | 0.36 | 84 | 1014.7 |
| 20260503011024 | 1 | 15 | 1.6 | 4.8 | 0.00 | 0.36 | 0.36 | 84 | 1014.6 |
| 20260503010519 | 1 | 67 | 0.0 | 4.8 | 0.00 | 0.36 | 0.36 | 85 | 1014.4 |
| 20260503010202 | 1 | 355 | 0.0 | 4.8 | 0.00 | 0.36 | 0.36 | 86 | 1014.5 |
| 20260503005520 | 1 | 355 | 0.0 | 4.8 | 0.00 | 0.36 | 0.36 | 86 | 1014.4 |
| 20260503005019 | 1 | 336 | 0.0 | 3.2 | 0.00 | 0.36 | 0.36 | 87 | 1014.4 |
| 20260503004620 | 1 | 337 | 0.0 | 3.2 | 0.00 | 0.36 | 0.36 | 88 | 1014.3 |
| 20260503004022 | 1 | 14 | 0.0 | 0.0 | 0.00 | 0.36 | 0.36 | 88 | 1014.3 |
| 20260503003526 | 1 | 14 | 0.0 | 0.0 | 0.00 | 0.36 | 0.36 | 88 | 1014.3 |
| 20260503003120 | 1 | 14 | 0.0 | 1.6 | 0.00 | 0.36 | 0.36 | 87 | 1014.1 |
| 20260503002524 | 1 | 14 | 0.0 | 1.6 | 0.00 | 0.36 | 0.36 | 87 | 1014.2 |
| 20260503002020 | 1 | 14 | 0.0 | 3.2 | 0.00 | 0.36 | 0.36 | 86 | 1014.2 |
| 20260503001614 | 1 | 18 | 0.0 | 3.2 | 0.00 | 0.36 | 0.36 | 86 | 1013.9 |
| 20260503001019 | 1 | 34 | 0.0 | 3.2 | 0.00 | 0.36 | 0.36 | 86 | 1014.0 |
| 20260503000520 | 1 | 80 | 0.0 | 3.2 | 0.00 | 0.36 | 0.36 | 87 | 1013.9 |
| 20260503000122 | 1 | 80 | 0.0 | 3.2 | 0.00 | 0.36 | 0.36 | 86 | 1013.8 |
| 20260502235529 | 1 | 80 | 0.0 | 0.0 | 0.00 | 0.36 | 0.36 | 87 | 1013.9 |
| 20260502235021 | 1 | 80 | 0.0 | 1.6 | 0.00 | 0.36 | 0.36 | 86 | 1013.9 |
| 20260502234630 | 1 | 80 | 0.0 | 1.6 | 0.00 | 0.36 | 0.36 | 85 | 1014.0 |
| 20260502234035 | 1 | 80 | 0.0 | 1.6 | 0.00 | 0.36 | 0.36 | 86 | 1014.2 |
| 20260502233521 | 1 | 79 | 0.0 | 1.6 | 0.00 | 0.36 | 0.36 | 86 | 1014.1 |
| 20260502233132 | 1 | 79 | 0.0 | 4.8 | 0.00 | 0.36 | 0.36 | 86 | 1013.9 |
| 20260502232535 | 1 | 79 | 1.6 | 4.8 | 0.00 | 0.36 | 0.36 | 86 | 1014.1 |
| 20260502232022 | 1 | 72 | 1.6 | 4.8 | 0.00 | 0.36 | 0.36 | 87 | 1013.9 |
| 20260502231621 | 1 | 30 | 0.0 | 6.4 | 0.00 | 0.36 | 0.36 | 86 | 1014.1 |
| 20260502231022 | 1 | 46 | 1.6 | 6.4 | 0.00 | 0.36 | 0.36 | 86 | 1014.1 |
| 20260502230521 | 1 | 83 | 1.6 | 6.4 | 0.00 | 0.36 | 0.36 | 87 | 1014.1 |
| 20260502230125 | 1 | 52 | 3.2 | 8.0 | 0.00 | 0.36 | 0.36 | 87 | 1014.0 |
| 20260502225522 | 1 | 57 | 3.2 | 8.0 | 0.00 | 0.36 | 0.36 | 87 | 1013.8 |
| 20260502225022 | 2 | 43 | 1.6 | 6.4 | 0.00 | 0.36 | 0.36 | 87 | 1013.8 |
| 20260502224614 | 2 | 28 | 1.6 | 4.8 | 0.00 | 0.36 | 0.36 | 87 | 1014.0 |
| 20260502224023 | 2 | 55 | 1.6 | 9.7 | 0.00 | 0.36 | 0.36 | 88 | 1014.0 |
| 20260502223521 | 2 | 89 | 3.2 | 9.7 | 0.00 | 0.36 | 0.36 | 87 | 1014.0 |
| 20260502223120 | 1 | 71 | 3.2 | 8.0 | 0.00 | 0.36 | 0.36 | 87 | 1014.1 |
| 20260502222525 | 1 | 64 | 3.2 | 12.9 | 0.00 | 0.36 | 0.36 | 88 | 1013.9 |
| 20260502222022 | 1 | 29 | 3.2 | 12.9 | 0.00 | 0.36 | 0.36 | 87 | 1013.7 |
| 20260502221617 | 1 | 44 | 3.2 | 9.7 | 0.00 | 0.36 | 0.36 | 88 | 1013.8 |
| 20260502221030 | 2 | 59 | 3.2 | 9.7 | 0.00 | 0.36 | 0.36 | 88 | 1013.8 |
| 20260502220526 | 2 | 75 | 4.8 | 12.9 | 0.00 | 0.36 | 0.36 | 88 | 1013.8 |
| 20260502220138 | 1 | 49 | 6.4 | 14.5 | 0.00 | 0.36 | 0.36 | 88 | 1013.7 |
| 20260502215524 | 1 | 26 | 8.0 | 17.7 | 0.00 | 0.36 | 0.36 | 88 | 1014.0 |
| 20260502215021 | 2 | 57 | 4.8 | 14.5 | 0.00 | 0.36 | 0.36 | 89 | 1013.9 |
| 20260502214623 | 2 | 40 | 4.8 | 11.3 | 0.00 | 0.36 | 0.36 | 89 | 1013.9 |
| 20260502214021 | 2 | 65 | 4.8 | 14.5 | 0.00 | 0.36 | 0.36 | 89 | 1013.8 |
| 20260502213520 | 2 | 71 | 6.4 | 17.7 | 0.00 | 0.36 | 0.36 | 87 | 1013.7 |
| 20260502213126 | 2 | 92 | 8.0 | 17.7 | 0.00 | 0.36 | 0.36 | 85 | 1013.6 |
| 20260502212525 | 2 | 19 | 6.4 | 17.7 | 0.00 | 0.36 | 0.36 | 83 | 1013.7 |
| 20260502212024 | 3 | 337 | 6.4 | 12.9 | 0.00 | 0.36 | 0.36 | 82 | 1013.7 |
| 20260502211626 | 3 | 20 | 4.8 | 19.3 | 0.00 | 0.36 | 0.36 | 82 | 1013.4 |
| 20260502211024 | 3 | 38 | 6.4 | 19.3 | 0.00 | 0.36 | 0.36 | 82 | 1013.4 |
| 20260502210523 | 3 | 97 | 3.2 | 16.1 | 0.00 | 0.36 | 0.36 | 83 | 1013.5 |
| 20260502210111 | 3 | 304 | 3.2 | 16.1 | 0.00 | 0.36 | 0.36 | 83 | 1013.5 |
| 20260502205526 | 3 | 53 | 6.4 | 16.1 | 0.00 | 0.36 | 0.36 | 81 | 1013.6 |
| 20260502205020 | 3 | 42 | 3.2 | 12.9 | 0.00 | 0.36 | 0.36 | 84 | 1013.6 |
| 20260502204617 | 3 | 57 | 4.8 | 12.9 | 0.00 | 0.36 | 0.36 | 83 | 1013.6 |
| 20260502204024 | 2 | 318 | 4.8 | 14.5 | 0.00 | 0.36 | 0.36 | 84 | 1013.6 |
| 20260502203519 | 2 | 65 | 6.4 | 16.1 | 0.00 | 0.36 | 0.36 | 85 | 1013.6 |
| 20260502203112 | 2 | 20 | 4.8 | 16.1 | 0.00 | 0.36 | 0.36 | 85 | 1013.5 |
| 20260502202525 | 2 | 60 | 4.8 | 14.5 | 0.00 | 0.36 | 0.36 | 85 | 1013.7 |
| 20260502202025 | 2 | 346 | 3.2 | 9.7 | 0.00 | 0.36 | 0.36 | 85 | 1013.6 |
| 20260502201636 | 2 | 51 | 4.8 | 19.3 | 0.00 | 0.36 | 0.36 | 83 | 1013.6 |
| 20260502201024 | 2 | 21 | 4.8 | 19.3 | 0.00 | 0.36 | 0.36 | 84 | 1013.8 |
| 20260502200523 | 2 | 58 | 3.2 | 14.5 | 0.00 | 0.36 | 0.36 | 86 | 1013.8 |
| 20260502200109 | 2 | 30 | 4.8 | 14.5 | 0.00 | 0.36 | 0.36 | 85 | 1013.6 |
| 20260502195525 | 3 | 97 | 4.8 | 12.9 | 0.00 | 0.36 | 0.36 | 84 | 1013.7 |
| 20260502195020 | 3 | 97 | 3.2 | 20.9 | 0.00 | 0.36 | 0.36 | 85 | 1013.7 |
| 20260502194620 | 3 | 46 | 8.0 | 20.9 | 0.00 | 0.36 | 0.36 | 83 | 1013.7 |
| 20260502194022 | 3 | 9 | 3.2 | 8.0 | 0.00 | 0.36 | 0.36 | 83 | 1013.5 |
| 20260502193525 | 3 | 14 | 3.2 | 8.0 | 0.00 | 0.36 | 0.36 | 84 | 1013.5 |
| 20260502193119 | 3 | 33 | 1.6 | 8.0 | 0.00 | 0.36 | 0.36 | 84 | 1013.5 |
| 20260502192522 | 3 | 347 | 3.2 | 12.9 | 0.00 | 0.36 | 0.36 | 84 | 1013.5 |
| 20260502192025 | 3 | 49 | 3.2 | 14.5 | 0.00 | 0.36 | 0.36 | 83 | 1013.4 |
| 20260502191617 | 3 | 39 | 3.2 | 9.7 | 0.00 | 0.36 | 0.36 | 82 | 1013.4 |
| 20260502191021 | 3 | 22 | 3.2 | 9.7 | 0.00 | 0.36 | 0.36 | 81 | 1013.4 |
| 20260502190521 | 3 | 36 | 4.8 | 12.9 | 0.00 | 0.36 | 0.36 | 81 | 1013.3 |
| 20260502190115 | 4 | 71 | 4.8 | 14.5 | 0.00 | 0.36 | 0.36 | 81 | 1013.4 |
| 20260502185521 | 4 | 42 | 4.8 | 14.5 | 0.00 | 0.36 | 0.36 | 80 | 1013.3 |
| 20260502185022 | 4 | 65 | 4.8 | 12.9 | 0.00 | 0.36 | 0.36 | 79 | 1013.3 |
| 20260502184618 | 4 | 88 | 6.4 | 14.5 | 0.00 | 0.36 | 0.36 | 79 | 1013.3 |
| 20260502184021 | 4 | 84 | 6.4 | 14.5 | 0.00 | 0.36 | 0.36 | 81 | 1013.3 |
| 20260502183521 | 4 | 80 | 3.2 | 12.9 | 0.00 | 0.36 | 0.36 | 81 | 1013.3 |
| 20260502183239 | 4 | 89 | 3.2 | 11.3 | 0.00 | 0.36 | 0.36 | 84 | 1013.4 |
| 20260502182526 | 4 | 25 | 4.8 | 17.7 | 0.00 | 0.36 | 0.36 | 84 | 1013.3 |
| 20260502182024 | 4 | 86 | 9.7 | 17.7 | 0.00 | 0.36 | 0.36 | 83 | 1013.3 |
| 20260502181614 | 4 | 360 | 8.0 | 17.7 | 0.00 | 0.36 | 0.36 | 84 | 1013.3 |
| 20260502181028 | 4 | 46 | 6.4 | 17.7 | 0.00 | 0.36 | 0.36 | 88 | 1013.4 |
| 20260502180518 | 3 | 34 | 6.4 | 14.5 | 0.00 | 0.36 | 0.36 | 87 | 1013.4 |
| 20260502180235 | 3 | 100 | 4.8 | 14.5 | 0.00 | 0.36 | 0.36 | 88 | 1013.3 |
| 20260502170313 | 3 | 80 | 4.8 | 14.5 | 0.05 | 0.36 | 0.36 | 88 | 1013.1 |
| 20260502164036 | 6 | 130 | 3.2 | 6.4 | 0.00 | 0.30 | 0.30 | 78 | 1012.8 |
| 20260502163530 | 6 | 45 | 1.6 | 9.7 | 0.00 | 0.30 | 0.30 | 77 | 1012.9 |
| 20260502163317 | 6 | 228 | 3.2 | 14.5 | 0.00 | 0.30 | 0.30 | 82 | 1014.2 |
| 20260502162536 | 6 | 344 | 1.6 | 14.5 | 0.00 | 0.30 | 0.30 | 87 | 1014.2 |
| 20260502162124 | 5 | 229 | 4.8 | 11.3 | 0.00 | 0.30 | 0.30 | 84 | 1013.8 |
| 20260502161800 | 4 | 207 | 1.6 | 4.8 | 0.00 | 0.30 | 0.30 | 84 | 1013.6 |
| 20260502161049 | 3 | 78 | 0.0 | 6.4 | 0.00 | 0.30 | 0.30 | 84 | 1013.4 |
| 20260502160537 | 3 | 35 | 1.6 | 6.4 | 0.00 | 0.30 | 0.30 | 84 | 1013.4 |
| 20260502152042 | 5 | 78 | 1.6 | 9.7 | 0.00 | 0.30 | 0.30 | 76 | 1012.8 |
| 20260502151736 | 5 | 74 | 3.2 | 8.0 | 0.00 | 0.30 | 0.30 | 76 | 1013.0 |
| 20260502151027 | 5 | 40 | 1.6 | 9.7 | 0.00 | 0.30 | 0.30 | 79 | 1013.2 |
| 20260502150530 | 5 | 36 | 3.2 | 9.7 | 0.00 | 0.30 | 0.30 | 76 | 1013.4 |
| 20260502150321 | 5 | 149 | 3.2 | 9.7 | 0.00 | 0.30 | 0.30 | 78 | 1013.1 |
| 20260502130559 | 2 | 5 | 3.2 | 8.0 | 0.00 | 0.30 | 0.30 | 93 | 1014.0 |
| 20260502130232 | 2 | 82 | 1.6 | 8.0 | 0.00 | 0.30 | 0.30 | 93 | 1014.0 |
| 20260502123543 | 2 | 90 | 3.2 | 6.4 | 0.00 | 0.30 | 0.30 | 93 | 1013.6 |
| 20260502123212 | 2 | 28 | 1.6 | 4.8 | 0.03 | 0.30 | 0.30 | 93 | 1013.8 |
| 20260502122647 | 2 | 30 | 1.6 | 4.8 | 0.03 | 0.30 | 0.30 | 93 | 1014.0 |
| 20260502122040 | 2 | 74 | 0.0 | 4.8 | 0.03 | 0.30 | 0.30 | 94 | 1013.8 |
| 20260502121754 | 2 | 46 | 1.6 | 4.8 | 0.03 | 0.30 | 0.30 | 94 | 1013.8 |
| 20260502121036 | 2 | 10 | 1.6 | 4.8 | 0.03 | 0.30 | 0.30 | 94 | 1013.6 |
| 20260502120547 | 1 | 28 | 1.6 | 6.4 | 0.03 | 0.30 | 0.30 | 94 | 1013.6 |
| 20260502120240 | 1 | 13 | 0.0 | 4.8 | 0.03 | 0.30 | 0.30 | 95 | 1014.1 |
| 20260502115537 | 1 | 36 | 1.6 | 4.8 | 0.03 | 0.30 | 0.30 | 95 | 1014.1 |
| 20260502115033 | 1 | 46 | 0.0 | 3.2 | 0.03 | 0.30 | 0.30 | 95 | 1013.9 |
| 20260502114650 | 1 | 53 | 1.6 | 4.8 | 0.03 | 0.30 | 0.30 | 94 | 1013.7 |
| 20260502114029 | 1 | 52 | 1.6 | 4.8 | 0.03 | 0.30 | 0.30 | 94 | 1013.8 |
| 20260502113530 | 1 | 77 | 1.6 | 4.8 | 0.03 | 0.30 | 0.30 | 94 | 1013.7 |
| 20260502113057 | 1 | 53 | 1.6 | 4.8 | 0.00 | 0.28 | 0.28 | 95 | 1013.8 |
| 20260502112532 | 1 | 43 | 0.0 | 4.8 | 0.03 | 0.28 | 0.28 | 95 | 1013.7 |
| 20260502112053 | 1 | 22 | 1.6 | 6.4 | 0.03 | 0.28 | 0.28 | 95 | 1013.6 |
| 20260502111832 | 1 | 42 | 1.6 | 8.0 | 0.03 | 0.28 | 0.28 | 95 | 1013.7 |
| 20260502111028 | 1 | 9 | 3.2 | 8.0 | 0.03 | 0.28 | 0.28 | 95 | 1013.7 |
| 20260502110540 | 1 | 32 | 0.0 | 4.8 | 0.03 | 0.28 | 0.28 | 95 | 1013.6 |
| 20260502110309 | 1 | 15 | 0.0 | 3.2 | 0.03 | 0.28 | 0.28 | 95 | 1013.7 |
| 20260502105544 | 1 | 45 | 0.0 | 3.2 | 0.03 | 0.28 | 0.28 | 95 | 1013.8 |
| 20260502105020 | 1 | 12 | 0.0 | 1.6 | 0.03 | 0.28 | 0.28 | 94 | 1013.8 |
| 20260502104947 | 1 | 13 | 0.0 | 1.6 | 0.03 | 0.28 | 0.28 | 94 | 1013.5 |
| 20260502104033 | 1 | 13 | 0.0 | 3.2 | 0.03 | 0.28 | 0.28 | 95 | 1013.6 |
| 20260502103537 | 1 | 360 | 0.0 | 4.8 | 0.03 | 0.28 | 0.28 | 94 | 1013.5 |
| 20260502103316 | 1 | 61 | 1.6 | 4.8 | 0.03 | 0.28 | 0.28 | 95 | 1013.5 |
| 20260502102536 | 1 | 28 | 1.6 | 4.8 | 0.00 | 0.23 | 0.23 | 95 | 1013.4 |
| 20260502102048 | 1 | 38 | 1.6 | 4.8 | 0.00 | 0.23 | 0.23 | 95 | 1013.5 |
| 20260502101715 | 1 | 63 | 1.6 | 3.2 | 0.00 | 0.23 | 0.23 | 95 | 1013.4 |
| 20260502101110 | 1 | 47 | 0.0 | 4.8 | 0.00 | 0.23 | 0.23 | 95 | 1013.5 |
| 20260502100625 | 1 | 30 | 1.6 | 4.8 | 0.00 | 0.23 | 0.23 | 95 | 1013.4 |
| 20260502100119 | 1 | 19 | 0.0 | 3.2 | 0.03 | 0.23 | 0.23 | 95 | 1013.5 |
| 20260502091020 | 0 | 73 | 0.0 | 1.6 | 0.03 | 0.23 | 0.23 | 94 | 1012.9 |
| 20260502090521 | 0 | 73 | 0.0 | 1.6 | 0.05 | 0.23 | 0.23 | 94 | 1012.9 |
| 20260502071015 | 1 | 73 | 0.0 | 0.0 | 0.10 | 0.18 | 0.18 | 91 | 1013.5 |
| 20260502070518 | 1 | 73 | 0.0 | 1.6 | 0.10 | 0.15 | 0.15 | 90 | 1013.5 |
| 20260502070115 | 1 | 73 | 0.0 | 1.6 | 0.10 | 0.15 | 0.15 | 90 | 1013.3 |
| 20260502065516 | 1 | 73 | 0.0 | 1.6 | 0.10 | 0.10 | 0.10 | 91 | 1013.3 |
| 20260502065016 | 1 | 73 | 0.0 | 1.6 | 0.10 | 0.10 | 0.10 | 91 | 1013.5 |
| 20260502064603 | 1 | 73 | 0.0 | 3.2 | 0.08 | 0.10 | 0.10 | 90 | 1013.5 |
| 20260502064021 | 1 | 73 | 0.0 | 3.2 | 0.10 | 0.10 | 0.10 | 90 | 1013.5 |
| 20260502063519 | 1 | 70 | 1.6 | 3.2 | 0.10 | 0.10 | 0.10 | 90 | 1013.5 |
| 20260502063124 | 1 | 16 | 0.0 | 3.2 | 0.10 | 0.10 | 0.10 | 90 | 1013.6 |
| 20260502062518 | 1 | 28 | 0.0 | 3.2 | 0.08 | 0.08 | 0.08 | 90 | 1013.7 |
| 20260502062019 | 2 | 38 | 0.0 | 4.8 | 0.08 | 0.08 | 0.08 | 89 | 1013.6 |
| 20260502061606 | 2 | 40 | 0.0 | 4.8 | 0.08 | 0.08 | 0.08 | 89 | 1013.4 |
| 20260502061017 | 2 | 254 | 0.0 | 1.6 | 0.08 | 0.08 | 0.08 | 89 | 1013.6 |
| 20260502060519 | 2 | 254 | 0.0 | 3.2 | 0.05 | 0.05 | 0.05 | 88 | 1013.6 |
| 20260502060110 | 2 | 254 | 0.0 | 4.8 | 0.05 | 0.05 | 0.05 | 87 | 1013.7 |
| 20260502055537 | 2 | 254 | 0.0 | 4.8 | 0.03 | 0.03 | 0.03 | 87 | 1013.7 |
| 20260502055021 | 2 | 322 | 0.0 | 3.2 | 0.03 | 0.03 | 0.03 | 87 | 1013.6 |
| 20260502054618 | 2 | 18 | 0.0 | 0.0 | 0.03 | 0.03 | 0.03 | 87 | 1013.5 |
| 20260502054023 | 2 | 18 | 0.0 | 0.0 | 0.00 | 0.00 | 0.00 | 86 | 1013.6 |
| 20260502053524 | 2 | 18 | 0.0 | 0.0 | 0.00 | 0.00 | 0.00 | 85 | 1013.5 |
| 20260502053100 | 2 | 18 | 0.0 | 0.0 | 0.00 | 0.00 | 0.00 | 84 | 1013.5 |
| 20260502052515 | 2 | 18 | 0.0 | 0.0 | 0.00 | 0.00 | 0.00 | 84 | 1013.5 |
| 20260502052012 | 3 | 18 | 0.0 | 0.0 | 0.00 | 0.00 | 0.00 | 83 | 1013.7 |
| 20260502051540 | 3 | 18 | 0.0 | 0.0 | 0.00 | 0.00 | 0.00 | 83 | 1013.6 |
| 20260502051008 | 3 | 18 | 0.0 | 0.0 | 0.00 | 0.00 | 0.00 | 82 | 1013.7 |
| 20260502050515 | 3 | 18 | 0.0 | 1.6 | 0.00 | 0.00 | 0.00 | 81 | 1013.9 |
| 20260502050053 | 3 | 18 | 0.0 | 1.6 | 0.00 | 0.00 | 0.00 | 80 | 1013.8 |
| 20260502045519 | 3 | 18 | 0.0 | 3.2 | 0.00 | 0.03 | 0.00 | 79 | 1013.7 |
| 20260502045028 | 3 | 18 | 0.0 | 3.2 | 0.00 | 0.03 | 0.00 | 78 | 1013.8 |
| 20260502044831 | 3 | 338 | 0.0 | 3.2 | 0.00 | 0.03 | 0.00 | 76 | 1013.8 |
| 20260502044015 | 3 | 338 | 0.0 | 3.2 | 0.00 | 0.03 | 0.00 | 74 | 1013.7 |
| 20260502043520 | 3 | 339 | 0.0 | 4.8 | 0.00 | 0.03 | 0.00 | 73 | 1013.7 |
| 20260502043056 | 3 | 334 | 1.6 | 4.8 | 0.00 | 0.03 | 0.00 | 73 | 1013.6 |
| 20260502042519 | 3 | 30 | 0.0 | 3.2 | 0.00 | 0.03 | 0.00 | 73 | 1013.6 |
| 20260502042021 | 3 | 30 | 0.0 | 3.2 | 0.00 | 0.03 | 0.00 | 71 | 1013.5 |
| 20260502041604 | 4 | 27 | 0.0 | 3.2 | 0.00 | 0.03 | 0.00 | 71 | 1013.6 |
| 20260502041018 | 4 | 40 | 0.0 | 3.2 | 0.00 | 0.03 | 0.00 | 71 | 1013.6 |
| 20260502040518 | 4 | 40 | 0.0 | 4.8 | 0.00 | 0.03 | 0.00 | 71 | 1013.5 |
| 20260502035517 | 4 | 355 | 3.2 | 4.8 | 0.00 | 0.03 | 0.03 | 68 | 1013.5 |
| 20260502035015 | 4 | 40 | 1.6 | 4.8 | 0.00 | 0.03 | 0.03 | 68 | 1013.4 |